Regional Weather Roundup
Issued by NWS Little Rock, AR

Home | Current Version | Previous Version | Graphics & Text | Print | Product List | Glossary On
Versions: 1 2 3 4 5 6 7 8 9 10 11 12 13 14 15 16 17 18 19 20 21 22 23 24 25 26 27 28 29 30 31
000
ASUS44 KLZK 201805
RWRLZK

WEATHER ROUNDUP FOR ARKANSAS
NATIONAL WEATHER SERVICE LITTLE ROCK AR
100 PM CDT FRI APR 20 2018

NOTE: "FAIR" INDICATES FEW OR NO CLOUDS BELOW 12,000 FEET WITH NO
SIGNIFICANT WEATHER AND/OR OBSTRUCTIONS TO VISIBILITY.

ARZ001-003-010-029-201900-
NORTHWEST ARKANSAS

CITY           SKY/WX    TMP DP  RH WIND       PRES   REMARKS
FAYETTEVILLE   CLOUDY    62  25  24 SE12      30.32F
6HR MIN TEMP:  32; 6HR MAX TEMP:  62;

FORT SMITH     SUNNY     62  34  35 SE10G18   30.33F
6HR MIN TEMP:  41; 6HR MAX TEMP:  62;

HARRISON       CLOUDY    59  32  36 E14       30.36F
6HR MIN TEMP:  36; 6HR MAX TEMP:  59;

BENTONVILLE    MOSUNNY   60  28  29 SE15      30.34F
6HR MIN TEMP:  41; 6HR MAX TEMP:  60;

ROGERS         MOSUNNY   59  27  29 E13G21    30.33F
6HR MIN TEMP:  41; 6HR MAX TEMP:  59;

SILOAM SPGS    SUNNY     60  32  34 S8        30.33F
6HR MIN TEMP:  39; 6HR MAX TEMP:  60;

HIGHFILL       MOSUNNY   60  30  32 SE10      30.33F
6HR MIN TEMP:  40; 6HR MAX TEMP:  61; 6HR PCP: TRACE;

SPRINGDALE     SUNNY     59  32  36 E7G13     30.34F
$$

ARZ004-005-016-201900-
NORTH CENTRAL ARKANSAS

CITY           SKY/WX    TMP DP  RH WIND       PRES   REMARKS
BATESVILLE     SUNNY     60  30  32 E9G16     30.39F
6HR MIN TEMP:  36; 6HR MAX TEMP:  60;

FLIPPIN        SUNNY     60  30  32 VRB6      30.38F
6HR MIN TEMP:  33; 6HR MAX TEMP:  61;

MTN HOME       SUNNY     61  26  26 S14G21    30.37F
6HR MIN TEMP:  38; 6HR MAX TEMP:  62;

$$

ARZ040-041-201900-
WEST CENTRAL ARKANSAS

CITY           SKY/WX    TMP DP  RH WIND       PRES   REMARKS
MENA           SUNNY     61  32  33 E12       30.33F
MOUNT IDA      SUNNY     60  36  40 VRB5      30.32F
6HR MIN TEMP:  36; 6HR MAX TEMP:  61;

$$

ARZ009-017-025-026-028-201900-
NORTHEAST ARKANSAS

CITY           SKY/WX    TMP DP  RH WIND       PRES   REMARKS
CORNING        FAIR      61  25  25 E10G18    30.41F
JONESBORO      FAIR      61  32  33 NE9       30.39F
6HR MIN TEMP:  41; 6HR MAX TEMP:  61;

NEWPORT        FAIR      61  27  27 E13       30.39F
6HR MIN TEMP:  36; 6HR MAX TEMP:  61;

WALNUT RIDGE   FAIR      62  19  19 E10       30.39F
BLYTHEVILLE    FAIR      62  29  28 E8        30.39F
6HR MIN TEMP:  38; 6HR MAX TEMP:  62;

$$

ARZ022-023-033-042-044-201900-
CENTRAL ARKANSAS

CITY           SKY/WX    TMP DP  RH WIND       PRES   REMARKS
LITTLE ROCK    MOSUNNY   62  34  35 E12       30.36F
6HR MIN TEMP:  40; 6HR MAX TEMP:  62;

N LITTLE ROCK    N/A     62  38  42 E13       30.34F
6HR MIN TEMP:  40; 6HR MAX TEMP:  62;

JACKSONVILLE   SUNNY     62  35  36 E12G17    30.35F
6HR MIN TEMP:  35; 6HR MAX TEMP:  62;

CONWAY           N/A     63  34  34 E13G25    30.36F
SEARCY         FAIR      62  35  36 NE10      30.38F
6HR MIN TEMP:  40; 6HR MAX TEMP:  62;

HOT SPRINGS    SUNNY     62  33  33 E12G20    30.35F
6HR MIN TEMP:  43; 6HR MAX TEMP:  62;

RUSSELLVILLE   CLOUDY    61  32  33 E9        30.35F
6HR MIN TEMP:  38; 6HR MAX TEMP:  62;

CLINTON        FAIR      61  32  33 SE9       30.38F
$$

ARZ036-201900-
EAST ARKANSAS

CITY           SKY/WX    TMP DP  RH WIND       PRES   REMARKS
WEST MEMPHIS   FAIR      64  35  34 E8        30.35F
6HR MIN TEMP:  40; 6HR MAX TEMP:  65;

$$

ARZ050-053-066-070-073-201900-
SOUTHWEST ARKANSAS

CITY           SKY/WX    TMP DP  RH WIND       PRES   REMARKS
ARKADELPHIA    FAIR      62  39  42 VRB7      30.35F
6HR MIN TEMP:  40; 6HR MAX TEMP:  62;

CAMDEN         FAIR      64  32  29 NE12      30.33F
TEXARKANA      SUNNY     60  39  45 E10G18    30.32F
6HR MIN TEMP:  42; 6HR MAX TEMP:  60;

EL DORADO      FAIR      62  38  40 E9G18     30.33F
6HR MIN TEMP:  41; 6HR MAX TEMP:  62;

DE QUEEN       SUNNY     61  38  42 E13G20    30.31F
6HR MIN TEMP:  42; 6HR MAX TEMP:  61;

$$

ARZ056-057-069-201900-
SOUTHEAST ARKANSAS

CITY           SKY/WX    TMP DP  RH WIND       PRES   REMARKS
PINE BLUFF     FAIR      61  34  36 NE12      30.35F
6HR MIN TEMP:  43; 6HR MAX TEMP:  61;

STUTTGART      FAIR      61  34  36 E13       30.36F
6HR MIN TEMP:  42; 6HR MAX TEMP:  62;

MONTICELLO     FAIR      62  32  32 E9G20     30.33F
6HR MIN TEMP:  40; 6HR MAX TEMP:  62;


$$






USA.gov is the U.S. government's official web portal to all federal, state and local government web resources and services.